Weather History for Alpine, TX

Change the Weather History Date:

Saturday, May 18, 2013

  Actual Average (KMRF) Record (KMRF)
Temperature  
Mean Temperature 77 °F -  
Max Temperature 92 °F 82 °F 96 °F (2003)
Min Temperature 62 °F 50 °F 39 °F (2008)
Cooling Degree Days 12    
Growing Degree Days 27 (Base 50)    
Moisture  
Dew Point 17 °F    
Average Humidity 11    
Maximum Humidity 17    
Minimum Humidity 7    
Precipitation  
Precipitation 0.00 in - - ()
Sea Level Pressure  
Sea Level Pressure 30.03 in    
Wind  
Wind Speed 9 mph (SW)    
Max Wind Speed 20 mph    
Max Gust Speed 28 mph    
Visibility 10 miles    
Events      
Averages and records for this station are not official NWS values.
T = Trace of Precipitation, MM = Missing Value Source: NWS Daily Summary

Daily Weather History Graph

Daily Weather History Graph

Search for Another Location

Airport:

Trip Planner

Search our weather history database for the weather conditions in past years. The results will help you decide how hot, cold, wet, or windy it might be!

Date:

Astronomy

May. 18, 2013 Rise Set
Actual Time 6:58 AM CDT 8:44 PM CDT
Civil Twilight 6:32 AM CDT 9:10 PM CDT
Nautical Twilight 6:00 AM CDT 9:42 PM CDT
Astronomical Twilight 5:26 AM CDT 10:16 PM CDT
Moon 2:17 PM CDT (5/18) 2:22 AM CDT (5/18)
Length of Visible Light 14h 38m
Length of Day
13h 45m
First Quarter, 55% of the Moon is Illuminated
May 18
First Quarter
May 24
Full
May 31
Last Quarter
Jun 8
New
Jun 16
First Quarter

Hourly Weather History & Observations

Time (CDT) Temp. Dew Point Humidity Pressure Visibility Wind Dir Wind Speed Gust Speed Precip Events Conditions
12:15 AM 76.5 °F 9.5 °F 8% 30.04 in 10.0 mi South 8.1 mph - N/A   Clear
12:35 AM 73.9 °F 10.9 °F 9% 30.04 in 10.0 mi SW 8.1 mph - N/A   Clear
12:55 AM 73.4 °F 10.6 °F 9% 30.04 in 10.0 mi SSW 8.1 mph - N/A   Clear
1:15 AM 72.9 °F 10.4 °F 9% 30.04 in 10.0 mi SSW 6.9 mph - N/A   Clear
1:35 AM 73.4 °F 10.2 °F 9% 30.04 in 10.0 mi SSW 6.9 mph - N/A   Clear
1:55 AM 72.5 °F 10.9 °F 9% 30.04 in 10.0 mi South 9.2 mph - N/A   Clear
2:15 AM 73.6 °F 10.4 °F 9% 30.04 in 10.0 mi SSW 6.9 mph - N/A   Clear
2:35 AM 73.0 °F 10.4 °F 9% 30.03 in 10.0 mi SSW 9.2 mph - N/A   Clear
2:55 AM 71.1 °F 10.0 °F 9% 30.03 in 10.0 mi SSW 8.1 mph - N/A   Clear
3:15 AM 67.8 °F 12.0 °F 12% 30.02 in 10.0 mi SSW 4.6 mph - N/A   Clear
3:35 AM 66.7 °F 12.9 °F 12% 30.02 in 10.0 mi SW 4.6 mph - N/A   Clear
3:55 AM 70.0 °F 10.6 °F 10% 30.02 in 10.0 mi SW 8.1 mph - N/A   Clear
4:15 AM 69.1 °F 11.1 °F 11% 30.02 in 10.0 mi SSW 6.9 mph - N/A   Clear
4:35 AM 72.0 °F 8.8 °F 9% 30.02 in 10.0 mi SW 5.8 mph - N/A   Clear
4:55 AM 62.6 °F 12.4 °F 14% 30.02 in 10.0 mi WSW 3.5 mph - N/A   Clear
5:15 AM 69.8 °F 8.8 °F 9% 30.03 in 10.0 mi West 4.6 mph - N/A   Clear
5:35 AM 71.6 °F 7.7 °F 8% 30.03 in 10.0 mi WSW 4.6 mph - N/A   Clear
5:55 AM 68.7 °F 9.7 °F 10% 30.04 in 10.0 mi West 6.9 mph - N/A   Clear
6:15 AM 67.8 °F 10.4 °F 11% 30.04 in 10.0 mi SSW 8.1 mph - N/A   Clear
6:35 AM 68.9 °F 10.2 °F 10% 30.04 in 10.0 mi SW 8.1 mph - N/A   Clear
6:55 AM 63.9 °F 12.2 °F 13% 30.04 in 10.0 mi WSW 8.1 mph - N/A   Clear
7:15 AM 63.9 °F 12.7 °F 14% 30.05 in 10.0 mi WSW 10.4 mph - N/A   Clear
7:35 AM 62.2 °F 14.4 °F 16% 30.06 in 10.0 mi SW 11.5 mph - N/A   Clear
7:55 AM 66.6 °F 15.8 °F 14% 30.06 in 10.0 mi WSW 9.2 mph - N/A   Clear
8:15 AM 66.0 °F 16.0 °F 15% 30.07 in 10.0 mi SW 4.6 mph - N/A   Clear
8:35 AM 72.5 °F 20.5 °F 14% 30.07 in 10.0 mi WSW 8.1 mph - N/A   Clear
8:55 AM 77.7 °F 23.0 °F 13% 30.08 in 10.0 mi West 12.7 mph - N/A   Clear
9:15 AM 79.3 °F 23.5 °F 13% 30.08 in 10.0 mi West 16.1 mph 23.0 mph N/A   Clear
9:35 AM 79.9 °F 23.9 °F 13% 30.09 in 10.0 mi West 13.8 mph - N/A   Clear
9:55 AM 80.8 °F 24.4 °F 13% 30.09 in 10.0 mi WNW 12.7 mph 16.1 mph N/A   Clear
10:15 AM 81.5 °F 25.3 °F 13% 30.09 in 10.0 mi West 11.5 mph - N/A   Clear
10:35 AM 82.0 °F 25.5 °F 13% 30.09 in 10.0 mi West 8.1 mph 12.7 mph N/A   Clear
10:55 AM 83.7 °F 25.5 °F 12% 30.09 in 10.0 mi NW 10.4 mph 17.3 mph N/A   Clear
11:15 AM 84.4 °F 25.2 °F 12% 30.08 in 10.0 mi West 8.1 mph 16.1 mph N/A   Clear
11:35 AM 84.0 °F 26.1 °F 12% 30.08 in 10.0 mi NW 9.2 mph 18.4 mph N/A   Clear
11:55 AM 85.6 °F 26.4 °F 12% 30.08 in 10.0 mi WSW 15.0 mph - N/A   Clear
12:15 PM 86.2 °F 25.7 °F 11% 30.09 in 10.0 mi West 13.8 mph 19.6 mph N/A   Clear
12:35 PM 85.3 °F 25.0 °F 11% 30.08 in 10.0 mi West 15.0 mph 20.7 mph N/A   Clear
12:55 PM 86.0 °F 24.8 °F 11% 30.08 in 10.0 mi WSW 17.3 mph 21.9 mph N/A   Clear
1:15 PM 86.7 °F 24.1 °F 10% 30.07 in 10.0 mi West 15.0 mph 20.7 mph N/A   Clear
1:35 PM 88.3 °F 24.8 °F 10% 30.06 in 10.0 mi WSW 19.6 mph 25.3 mph N/A   Clear
1:55 PM 88.9 °F 24.3 °F 10% 30.05 in 10.0 mi WSW 9.2 mph 27.6 mph N/A   Clear
2:15 PM 88.7 °F 24.6 °F 10% 30.05 in 10.0 mi WSW 15.0 mph 21.9 mph N/A   Clear
2:35 PM 88.3 °F 23.5 °F 9% 30.04 in 10.0 mi WSW 12.7 mph 23.0 mph N/A   Clear
2:55 PM 90.3 °F 22.3 °F 8% 30.03 in 10.0 mi SW 17.3 mph 21.9 mph N/A   Clear
3:15 PM 89.6 °F 21.0 °F 8% 30.02 in 10.0 mi WSW 15.0 mph 23.0 mph N/A   Clear
3:35 PM 89.2 °F 21.4 °F 8% 30.01 in 10.0 mi West 9.2 mph - N/A   Clear
3:55 PM 91.6 °F 20.8 °F 8% 30.00 in 10.0 mi SSW 16.1 mph 19.6 mph N/A   Clear
4:15 PM 92.3 °F 19.8 °F 7% 30.00 in 10.0 mi WSW 13.8 mph 23.0 mph N/A   Clear
4:35 PM 91.0 °F 19.4 °F 7% 29.99 in 10.0 mi SW 16.1 mph 19.6 mph N/A   Clear
4:55 PM 90.7 °F 19.0 °F 7% 29.99 in 10.0 mi West 13.8 mph - N/A   Clear
5:15 PM 91.0 °F 18.5 °F 7% 29.98 in 10.0 mi SSE 10.4 mph 18.4 mph N/A   Clear
5:35 PM 91.9 °F 18.5 °F 7% 29.98 in 10.0 mi WSW 16.1 mph 20.7 mph N/A   Clear
5:55 PM 90.9 °F 16.9 °F 7% 29.97 in 10.0 mi WSW 13.8 mph 23.0 mph N/A   Clear
6:15 PM 90.0 °F 17.4 °F 7% 29.97 in 10.0 mi WSW 8.1 mph 18.4 mph N/A   Clear
6:35 PM 90.0 °F 18.0 °F 7% 29.96 in 10.0 mi SW 16.1 mph 19.6 mph N/A   Clear
6:55 PM 89.8 °F 17.1 °F 7% 29.96 in 10.0 mi SW 10.4 mph 20.7 mph N/A   Clear
7:15 PM 88.9 °F 15.3 °F 7% 29.96 in 10.0 mi South 13.8 mph 17.3 mph N/A   Clear
7:35 PM 87.8 °F 14.7 °F 7% 29.96 in 10.0 mi SSW 10.4 mph - N/A   Clear
7:55 PM 86.9 °F 15.4 °F 7% 29.96 in 10.0 mi SSW 10.4 mph - N/A   Clear
8:15 PM 85.3 °F 14.9 °F 7% 29.97 in 10.0 mi SW 10.4 mph - N/A   Clear
8:35 PM 81.5 °F 15.8 °F 9% 29.97 in 10.0 mi SSW 8.1 mph - N/A   Clear
8:55 PM 79.5 °F 15.3 °F 9% 29.97 in 10.0 mi SSW 8.1 mph - N/A   Clear
9:15 PM 75.4 °F 16.3 °F 11% 29.98 in 10.0 mi SW 8.1 mph - N/A   Clear
9:35 PM 73.8 °F 16.2 °F 11% 29.98 in 10.0 mi South 6.9 mph - N/A   Clear
9:55 PM 72.9 °F 16.7 °F 12% 29.99 in 10.0 mi SSW 6.9 mph - N/A   Clear
10:15 PM 70.3 °F 17.8 °F 14% 29.99 in 10.0 mi SW 4.6 mph - N/A   Clear
10:35 PM 68.5 °F 18.5 °F 15% 29.99 in 10.0 mi West 9.2 mph - N/A   Clear
10:55 PM 65.8 °F 18.9 °F 17% 30.00 in 10.0 mi SW 3.5 mph - N/A   Clear
11:15 PM 66.2 °F 17.8 °F 16% 30.00 in 10.0 mi WSW 4.6 mph - N/A   Clear
11:35 PM 66.2 °F 18.5 °F 16% 30.00 in 10.0 mi West 11.5 mph - N/A   Clear
11:55 PM 67.3 °F 18.1 °F 15% 30.00 in 10.0 mi West 10.4 mph - N/A   Clear